User: anonymous   Login
Location: Bushey
(51.6333°N, 0.3667°W)
Time: 21:44:53
(UTC+00:00)
Language:

Cosmos 2333 Rocket - Orbit

View from above orbital plane
View from above orbital plane
View from above satellite
View from above satellite

Ground track
Ground track

The orbit data is extracted from the following two-line orbital elements,

1 24298U 96051B   21134.87271173 -.00000182  00000-0 -72094-4 0  9992
2 24298  70.8309 291.7698 0018049 225.5081 134.4565 14.12447277273156
Epoch (UTC): 14 May 2021 20:56:42
Eccentricity: 0.0018049
inclination: 70.8309°
perigee height: 838 km
apogee height: 864 km
right ascension of ascending node: 291.7698°
argument of perigee: 225.5081°
revolutions per day: 14.12447277
mean anomaly at epoch: 134.4565°
orbit number at epoch: 27315

The dashed part of the orbit path shows where the satellite is in the earth's shadow,  

DLR